sat.trackr.live / text

‹ back to catalog

STARLINK-30522

NORAD 58008 · 2023-153T

PAYLOAD ACTIVE UNKNOWN

§ Identity

Operator
Country
US
Launch date
2023-10-05
Launch site
AFETR
Launch vehicle
Mass (kg)
RCS (m²)

Purposes: comms

External: N2YO · Heavens-Above · Gunter

§ Orbital elements

Epoch: 2026-05-24T22:27:03.438144Z

Period
94.27 min
Inclination
43.0016°
Eccentricity
0.0001584
Mean motion
15.27579552 rev/d
Perigee alt
482.0 km
Apogee alt
484.1 km
Semi-major
6,861.2 km
B*
7.7634e-5
RAAN
356.7457°
Arg perigee
259.9488°
Mean anomaly
100.1185°
Rev number
14,655

§ Raw data

STARLINK-305221 58008U 23153T   26144.93545646  .00001875  00000+0  77634-4 0  99952 58008  43.0016 356.7457 0001584 259.9488 100.1185 15.27579552146552

JSON: /api/v1/satellites/58008 · /tle

For live sub-satellite position, see the globe view (requires WebGL).

§ Visibility from observer

Set your observer location to see the next 7 days of passes ≥ 10°. The values pass through the URL so the page stays shareable.

No JS? Fill the form by hand. The geolocation button needs JavaScript.